Portada
METAR-TAF:

METAR-TAF

Aeroports :

Tena, Equador

latitud: 01-03-35S, longitud: 77-35-00W, altitud: 376 m

Observació

L'informe es va fer fa 13 minuts, a les 15:00 UTC
Vent calma
Temperatura 23°C
Humitat 89%
Pressió 1018 hPa
Visibilitat 10 km o més
Cel ennuvolat a una alçada de 5600 ft
Cel ennuvolat a una alçada de 10000 ft

METAR: SEJD 251500Z 00000KT 9999 BKN056 BKN100 23/21 Q1018 RMK A3007

Hora: 10:13 (15:13 UTC)


TAF: manca

Observacions i pronòstics meteorològics de més de 4000 aeroports (METAR i TAF).

Les estacions disponibles són els punts grocs i vermells al mapa.

Posi el ratolí al punt desitjat per veure el nom de l'estació.

Feu clic per veure les observacions i els pronòstics meteorològics.

Per canviar el mapa: feu clic els botons verds amb una creu de color negre per apropar; al botó verd amb un guió per allunyar la imatge; o en les fletxes verdes per a mapes adjacents.


METAR-TAF: